Powrót do katalogu

METEOR 2-20 DEB

AktywnyPO
NORAD 44700·DEBRIS·🇷🇺 Russia

Wystrzelony Sep 28, 1990 z Plesetsk Cosmodrome

Loading…

Następne Przeloty (najbliższe 24 godziny)

TLE

Starzejące sięSource: Space-Track

Epoka: Sep 9, 2026, 17:35 UTC

1 44700U 90086E   26252.73264280  .00002359  00000-0  13268-2 0  9998
2 44700  82.5044  44.6415 0009799 199.7659 221.6570 14.10082196652349

Śledź METEOR 2-20 DEB w czasie rzeczywistym z AllMySat

Download on the App Store